Curtis Field Brady US
ICAO: KBBD
IATA: BBD
Category: Medium
Scheduled Services: No

Elevation: 1827 ft
TransAlt. 18000 ft.

Airport Communications:
AWOS 3:118.375
HOUSTON CNTR:132.35
CTAF/UNICOM:122.8

KBBD Zoom In..

If you have problems with the map follow the link
https://www.worldairports.se/pages/airport.php?
ICAO=KBBD

Runways:

(A) RW 08 length 3520 ft width 110 ft
---- / hdg 86

(B) RW 17 length 4605 ft width 75 ft
---- / hdg 173

(C) RW 26 length 3520 ft width 110 ft
---- / hdg 266

(D) RW 35 length 4605 ft width 75 ft
---- / hdg 353

Location; KBBD
Day. 29 / Time. 18.15 Zulu
* Altimeter: 30.12
* Temperature: 08° c. 46.4°f.
* Wind from: 350° Speed 10 kn with Gusts up to 15 kn.
Dewpoint: 02° c.
Visibility: 10 Statute Miles.
Clouds: Clear (automated report).

KBBD 291815Z AUTO 35010G15KT 10SM CLR 08/02 A3012 RMK AO2


Wind From 350°
Speed 10 kn.

 
 
jpsmedia worldairports.se 2020   terms of use